Location: Ponte Samoggia
(44.5667°N, 11.1333°E)
Time: 23:22:49
(UTC+00:00)

Cosmos 1300 - Pass Details

Date: 26 May 2022
Orbit: 506 x 509 km, 82.5° (Epoch: 26 June)

Event Time Altitude Azimuth Distance (km) Brightness Sun altitude
Rises 00:56:31 0° 340° (NNW) 2,621 7.0 -20.2°
Reaches altitude 10° 00:58:50 10° 329° (NNW) 1,730 5.8 -20.0°
Enters shadow 01:01:46 27° 279° (W) 991 3.9 -19.8°
